Meteo pe oră la Bolshoe Ilino

Astăzi, 19 Mai, Miercuri

Timp Temperatura Precipitaţii Vânt Presiune Umiditate
00:00 +18°C° 0 mm 4 m/s 733 mmHg 73%
01:00 +17°C° 0 mm 3 m/s 732 mmHg 80%
02:00 +16°C° 0 mm 3 m/s 732 mmHg 86%
03:00 +16°C° 0.1 mm 3 m/s 732 mmHg 88%
04:00 +16°C° 0.1 mm 3 m/s 732 mmHg 89%
05:00 +16°C° 0.1 mm 3 m/s 732 mmHg 90%
06:00 +17°C° 0.2 mm 4 m/s 732 mmHg 89%
07:00 +17°C° 0.2 mm 4 m/s 732 mmHg 88%
08:00 +18°C° 0.2 mm 4 m/s 733 mmHg 87%
09:00 +19°C° 0.2 mm 5 m/s 733 mmHg 78%
10:00 +20°C° 0.2 mm 5 m/s 733 mmHg 70%
11:00 +22°C° 0.2 mm 6 m/s 733 mmHg 61%
12:00 +22°C° 0.4 mm 5 m/s 734 mmHg 62%
13:00 +22°C° 0.4 mm 5 m/s 734 mmHg 64%
14:00 +22°C° 0.4 mm 5 m/s 734 mmHg 65%
15:00 +21°C° 0.1 mm 5 m/s 734 mmHg 65%
16:00 +21°C° 0.1 mm 4 m/s 734 mmHg 65%
17:00 +21°C° 0.1 mm 3 m/s 734 mmHg 65%
18:00 +20°C° 0.1 mm 3 m/s 734 mmHg 73%
19:00 +18°C° 0.1 mm 2 m/s 734 mmHg 81%
20:00 +16°C° 0.1 mm 2 m/s 734 mmHg 90%
21:00 +15°C° 0 mm 2 m/s 734 mmHg 91%
22:00 +15°C° 0 mm 1 m/s 733 mmHg 93%
23:00 +14°C° 0 mm 1 m/s 733 mmHg 95%

Mâine, 20 Mai, Joi

Timp Temperatura Precipitaţii Vânt Presiune Umiditate
00:00 +14°C° 0 mm 1 m/s 733 mmHg 95%
01:00 +14°C° 0 mm 1 m/s 733 mmHg 96%
02:00 +14°C° 0 mm 1 m/s 733 mmHg 96%
03:00 +14°C° 0.1 mm 1 m/s 733 mmHg 96%
04:00 +14°C° 0.1 mm 2 m/s 732 mmHg 96%
05:00 +14°C° 0.1 mm 2 m/s 732 mmHg 96%
06:00 +15°C° 0.2 mm 2 m/s 732 mmHg 94%
07:00 +16°C° 0.2 mm 3 m/s 732 mmHg 92%
08:00 +17°C° 0.2 mm 3 m/s 731 mmHg 90%
09:00 +18°C° 0.4 mm 4 m/s 731 mmHg 82%
10:00 +17°C° 0.4 mm 5 m/s 731 mmHg 73%
11:00 +19°C° 0.4 mm 5 m/s 731 mmHg 65%
12:00 +19°C° 0.1 mm 5 m/s 731 mmHg 64%
13:00 +19°C° 0.1 mm 5 m/s 731 mmHg 63%
14:00 +19°C° 0.1 mm 5 m/s 731 mmHg 61%
15:00 +17°C° 1.5 mm 4 m/s 731 mmHg 71%
16:00 +14°C° 1.5 mm 4 m/s 731 mmHg 82%
17:00 +13°C° 1.5 mm 3 m/s 731 mmHg 92%
18:00 +13°C° 0.4 mm 2 m/s 731 mmHg 93%
19:00 +13°C° 0.4 mm 2 m/s 731 mmHg 95%
20:00 +13°C° 0.4 mm 1 m/s 731 mmHg 96%
21:00 +12°C° 0.1 mm 2 m/s 732 mmHg 96%
22:00 +11°C° 0.1 mm 3 m/s 732 mmHg 96%
23:00 +10°C° 0.1 mm 4 m/s 733 mmHg 97%

Poimâine, 21 Mai, Vineri

Timp Temperatura Precipitaţii Vânt Presiune Umiditate
00:00 +10°C° 0 mm 4 m/s 733 mmHg 96%
01:00 +8°C° 0 mm 4 m/s 734 mmHg 96%
02:00 +8°C° 0 mm 4 m/s 735 mmHg 95%
03:00 +8°C° 0 mm 4 m/s 735 mmHg 94%
04:00 +8°C° 0 mm 4 m/s 736 mmHg 93%
05:00 +9°C° 0 mm 3 m/s 737 mmHg 92%
06:00 +10°C° 0 mm 3 m/s 737 mmHg 85%
07:00 +11°C° 0 mm 3 m/s 738 mmHg 78%
08:00 +12°C° 0 mm 3 m/s 738 mmHg 71%
09:00 +14°C° 0 mm 3 m/s 738 mmHg 64%
10:00 +16°C° 0 mm 3 m/s 738 mmHg 56%
11:00 +17°C° 0 mm 3 m/s 739 mmHg 48%
12:00 +18°C° 0 mm 3 m/s 739 mmHg 45%
13:00 +18°C° 0 mm 4 m/s 739 mmHg 42%
14:00 +19°C° 0 mm 4 m/s 739 mmHg 39%
15:00 +18°C° 0 mm 3 m/s 739 mmHg 42%
16:00 +18°C° 0 mm 3 m/s 739 mmHg 45%
17:00 +18°C° 0 mm 3 m/s 739 mmHg 48%
18:00 +16°C° 0 mm 2 m/s 740 mmHg 56%
19:00 +14°C° 0 mm 2 m/s 740 mmHg 63%
20:00 +10°C° 0 mm 2 m/s 740 mmHg 71%
21:00 +9°C° 0 mm 2 m/s 741 mmHg 73%
22:00 +8°C° 0 mm 2 m/s 741 mmHg 75%
23:00 +8°C° 0 mm 1 m/s 741 mmHg 77%

22 Mai, Sâmbătă

Timp Temperatura Precipitaţii Vânt Presiune Umiditate
00:00 +8°C° 0 mm 1 m/s 741 mmHg 79%
01:00 +8°C° 0 mm 1 m/s 741 mmHg 82%
02:00 +7°C° 0 mm 1 m/s 742 mmHg 84%
03:00 +8°C° 0 mm 1 m/s 742 mmHg 82%
04:00 +8°C° 0 mm 1 m/s 742 mmHg 80%
05:00 +8°C° 0 mm 0 m/s 742 mmHg 78%
06:00 +11°C° 0 mm 1 m/s 742 mmHg 70%
07:00 +13°C° 0 mm 1 m/s 743 mmHg 61%
08:00 +15°C° 0 mm 1 m/s 743 mmHg 53%
09:00 +16°C° 0 mm 2 m/s 742 mmHg 48%
10:00 +17°C° 0 mm 2 m/s 742 mmHg 44%
11:00 +18°C° 0 mm 2 m/s 742 mmHg 39%
12:00 +19°C° 0 mm 3 m/s 742 mmHg 38%
13:00 +19°C° 0 mm 3 m/s 742 mmHg 37%
14:00 +20°C° 0 mm 3 m/s 742 mmHg 36%
15:00 +19°C° 0 mm 3 m/s 742 mmHg 41%
16:00 +19°C° 0 mm 3 m/s 742 mmHg 45%
17:00 +19°C° 0 mm 2 m/s 741 mmHg 49%
18:00 +17°C° 0 mm 2 m/s 741 mmHg 57%
19:00 +15°C° 0 mm 2 m/s 741 mmHg 66%
20:00 +13°C° 0 mm 1 m/s 741 mmHg 74%
21:00 +12°C° 0 mm 2 m/s 741 mmHg 78%
22:00 +12°C° 0 mm 2 m/s 741 mmHg 82%
23:00 +10°C° 0 mm 2 m/s 741 mmHg 87%

23 Mai, Duminică

Timp Temperatura Precipitaţii Vânt Presiune Umiditate
00:00 +10°C° 0 mm 2 m/s 741 mmHg 90%
01:00 +9°C° 0 mm 2 m/s 741 mmHg 93%
02:00 +9°C° 0 mm 2 m/s 741 mmHg 95%
03:00 +9°C° 0 mm 2 m/s 740 mmHg 94%
04:00 +10°C° 0 mm 2 m/s 740 mmHg 92%
05:00 +10°C° 0 mm 2 m/s 740 mmHg 90%
06:00 +12°C° 0 mm 3 m/s 739 mmHg 83%
07:00 +14°C° 0 mm 3 m/s 739 mmHg 75%
08:00 +15°C° 0 mm 4 m/s 738 mmHg 68%
09:00 +17°C° 0 mm 4 m/s 737 mmHg 66%
10:00 +18°C° 0 mm 4 m/s 737 mmHg 65%
11:00 +19°C° 0 mm 4 m/s 736 mmHg 63%
12:00 +18°C° 0.1 mm 4 m/s 736 mmHg 70%
13:00 +17°C° 0.1 mm 4 m/s 735 mmHg 78%
14:00 +17°C° 0.1 mm 3 m/s 735 mmHg 86%
15:00 +17°C° 0 mm 3 m/s 734 mmHg 85%
16:00 +17°C° 0 mm 3 m/s 734 mmHg 83%
17:00 +17°C° 0 mm 4 m/s 734 mmHg 82%
18:00 +17°C° 0.1 mm 4 m/s 734 mmHg 83%
19:00 +15°C° 0.1 mm 4 m/s 733 mmHg 84%
20:00 +15°C° 0.1 mm 4 m/s 733 mmHg 85%
21:00 +14°C° 0 mm 4 m/s 734 mmHg 86%
22:00 +13°C° 0 mm 4 m/s 734 mmHg 87%
23:00 +12°C° 0 mm 3 m/s 734 mmHg 88%

24 Mai, Luni

Timp Temperatura Precipitaţii Vânt Presiune Umiditate
00:00 +11°C° 0 mm 3 m/s 735 mmHg 91%
01:00 +10°C° 0 mm 2 m/s 735 mmHg 94%
02:00 +9°C° 0 mm 2 m/s 736 mmHg 97%
03:00 +9°C° 0 mm 2 m/s 736 mmHg 96%
04:00 +10°C° 0 mm 2 m/s 736 mmHg 94%
05:00 +11°C° 0 mm 1 m/s 736 mmHg 93%
06:00 +12°C° 0.1 mm 2 m/s 737 mmHg 87%
07:00 +13°C° 0.1 mm 2 m/s 737 mmHg 82%
08:00 +14°C° 0.1 mm 2 m/s 737 mmHg 77%
09:00 +15°C° 0.1 mm 2 m/s 737 mmHg 73%
10:00 +15°C° 0.1 mm 2 m/s 737 mmHg 69%
11:00 +15°C° 0.1 mm 2 m/s 738 mmHg 65%
12:00 +16°C° 0.1 mm 2 m/s 738 mmHg 59%
13:00 +17°C° 0.1 mm 2 m/s 738 mmHg 53%
14:00 +17°C° 0.1 mm 2 m/s 738 mmHg 47%
15:00 +18°C° 0 mm 2 m/s 738 mmHg 45%
16:00 +18°C° 0 mm 2 m/s 738 mmHg 43%
17:00 +19°C° 0 mm 1 m/s 738 mmHg 41%
18:00 +16°C° 0 mm 2 m/s 738 mmHg 50%
19:00 +15°C° 0 mm 2 m/s 738 mmHg 58%
20:00 +13°C° 0 mm 2 m/s 738 mmHg 66%
21:00 +12°C° 0 mm 2 m/s 739 mmHg 72%
22:00 +12°C° 0 mm 2 m/s 739 mmHg 78%
23:00 +10°C° 0 mm 3 m/s 739 mmHg 83%
Arată mai mult

Formular de consimțământ

Meteoprog și furnizorii noștri de servicii pot stoca și accesa date personale, precum cookies, identificatori de dispozitiv sau alte tehnologii similare pe dispozitivul dumneavoastră și procesa astfel de date pentru a personaliza conținutul și reclamele, dar și pentru a oferi caracteristici de social media și pentru a analiza traficul.

  • Stocarea și/sau accesarea informațiilor pe dispozitivul dumneavoastră

    Cookies, identificatori de dispozitiv sau alte informații pot fi stocate sau accesate pe dispozitiv în scopurile indicate mai sus.

  • Reclame și conținut personalizat, evaluarea reclamelor și a conținutului, informații despre audiențe și dezvoltarea produselor

    Reclamele și conținutul pot fi personalizate pe baza unui profil. Pot fi adăugate date suplimentare pentru a personaliza mai bine reclamele și conținutul. Performanța reclamelor și conținutului poate fi măsurată. Pot fi obținute informații despre utilizatorii care au văzut reclamele și conținutul. Aceste date pot fi utilizate pentru a dezvolta sau îmbunătăți experiența utilizatorilor, sistemele și software-ul.

Dând clic pe ‘Sunt de acord’, permiteți utilizarea cookie-urilor menționate, a identificatorilor de dispozitiv, balizelor web sau altor tehnologii similare. Setările pot fi modificate din browser-ul dispozitivului dumneavoastră.

În anumite scopuri, interesele legitime pot prima asupra consimțământului. Puteți citi mai multe informații în acest sens în Politica privind Confidențialitatea Datelor și Cookie.